VIR45W EGLL-KJFK

Flight info

Callsign VIR45W
Flight time N/A
Altitude 38000
Route N0477F380 CPT5J CPT DCT DIDZA L9 OKSAW DCT BIBPE DCT BUCGO DCT FELCA DCT OFSOX DCT BANBA DCT TOBOR/M085F380 NATD IBERG/N0476F400 N364A TUSKY DCT PLYMM PARCH4
Aircraft A35K/H-SBDE3GHIJ1J2J3J5M1P2RVWXYZ/LB2D1G1

Departure

Time 2026-04-30 12:53
Airport London Heathrow Airport (EGLL)

Arrival

Time N/A
Airport John F. Kennedy International Airport (KJFK)
Time Latitude Longitude Altitude Speed Heading
2026-04-30 12:32 51.47395 -0.46599 95 ft 0 kts 120°
2026-04-30 12:40 51.47396 -0.46603 94 ft 3 kts 120°
2026-04-30 12:40 51.47409 -0.46639 94 ft 4 kts 120°
2026-04-30 12:40 51.47420 -0.46670 91 ft 2 kts 120°
2026-04-30 12:41 51.47433 -0.46706 93 ft 4 kts 118°
2026-04-30 12:41 51.47447 -0.46742 93 ft 4 kts 138°
2026-04-30 12:41 51.47469 -0.46759 93 ft 4 kts 173°
2026-04-30 12:41 51.47494 -0.46755 92 ft 4 kts 213°
2026-04-30 12:42 51.47511 -0.46726 94 ft 4 kts 251°
2026-04-30 12:42 51.47515 -0.46685 92 ft 4 kts 270°
2026-04-30 12:42 51.47515 -0.46642 91 ft 4 kts 270°
2026-04-30 12:42 51.47515 -0.46633 91 ft 0 kts 270°
2026-04-30 12:44 51.47515 -0.46635 91 ft 1 kts 270°
2026-04-30 12:44 51.47515 -0.46654 91 ft 3 kts 268°
2026-04-30 12:45 51.47512 -0.46696 91 ft 5 kts 258°
2026-04-30 12:45 51.47490 -0.46737 94 ft 5 kts 206°
2026-04-30 12:45 51.47448 -0.46746 93 ft 7 kts 179°
2026-04-30 12:45 51.47394 -0.46731 94 ft 9 kts 171°
2026-04-30 12:46 51.47326 -0.46727 92 ft 11 kts 179°
2026-04-30 12:46 51.47246 -0.46726 92 ft 12 kts 179°
2026-04-30 12:46 51.47155 -0.46725 92 ft 14 kts 180°
2026-04-30 12:46 51.47072 -0.46722 92 ft 11 kts 174°
2026-04-30 12:47 51.47001 -0.46671 97 ft 12 kts 146°
2026-04-30 12:47 51.46928 -0.46591 97 ft 13 kts 145°
2026-04-30 12:47 51.46848 -0.46503 96 ft 14 kts 145°
2026-04-30 12:47 51.46777 -0.46431 97 ft 10 kts 156°
2026-04-30 12:48 51.46702 -0.46421 93 ft 11 kts 179°
2026-04-30 12:48 51.46663 -0.46464 96 ft 7 kts 249°
2026-04-30 12:48 51.46660 -0.46550 96 ft 9 kts 268°
2026-04-30 12:48 51.46658 -0.46663 96 ft 11 kts 269°
2026-04-30 12:49 51.46658 -0.46805 95 ft 14 kts 270°
2026-04-30 12:49 51.46657 -0.46978 95 ft 17 kts 270°
2026-04-30 12:49 51.46656 -0.47184 95 ft 20 kts 270°
2026-04-30 12:49 51.46656 -0.47422 95 ft 23 kts 270°
2026-04-30 12:50 51.46655 -0.47690 94 ft 25 kts 270°
2026-04-30 12:50 51.46654 -0.47949 95 ft 19 kts 270°
2026-04-30 12:50 51.46653 -0.48172 94 ft 21 kts 269°
2026-04-30 12:50 51.46652 -0.48419 92 ft 23 kts 270°
2026-04-30 12:51 51.46652 -0.48536 92 ft 9 kts 269°
2026-04-30 12:51 51.46651 -0.48653 92 ft 12 kts 269°
2026-04-30 12:51 51.46632 -0.48748 97 ft 9 kts 216°
2026-04-30 12:51 51.46567 -0.48783 95 ft 10 kts 193°
2026-04-30 12:52 51.46501 -0.48757 96 ft 9 kts 137°
2026-04-30 12:52 51.46480 -0.48657 95 ft 11 kts 94°
2026-04-30 12:52 51.46479 -0.48305 94 ft 61 kts 90°
2026-04-30 12:52 51.46481 -0.47293 95 ft 119 kts 89°
2026-04-30 12:53 51.46488 -0.45729 276 ft 149 kts 90°
2026-04-30 12:53 51.46497 -0.44103 973 ft 144 kts 92°
2026-04-30 12:53 51.46518 -0.42468 1474 ft 154 kts 90°
2026-04-30 12:53 51.46400 -0.40672 1664 ft 174 kts 111°
2026-04-30 12:54 51.45548 -0.39157 1884 ft 200 kts 146°
2026-04-30 12:54 51.44109 -0.38607 2022 ft 233 kts 180°
2026-04-30 12:54 51.42499 -0.39478 2447 ft 258 kts 209°
2026-04-30 12:54 51.41097 -0.41344 3150 ft 264 kts 219°
2026-04-30 12:55 51.39794 -0.43417 3982 ft 264 kts 221°
2026-04-30 12:55 51.38535 -0.45552 4792 ft 266 kts 224°
2026-04-30 12:55 51.37668 -0.48227 5427 ft 281 kts 251°
2026-04-30 12:55 51.37616 -0.51382 6153 ft 289 kts 277°
2026-04-30 12:56 51.38140 -0.54489 6936 ft 290 kts 285°
2026-04-30 12:56 51.38762 -0.57584 7520 ft 294 kts 284°
2026-04-30 12:56 51.39339 -0.60751 8123 ft 298 kts 281°
2026-04-30 12:56 51.39854 -0.63981 8737 ft 302 kts 281°
2026-04-30 12:57 51.40374 -0.67266 9371 ft 306 kts 281°
2026-04-30 12:57 51.40906 -0.70590 10019 ft 310 kts 282°
2026-04-30 12:57 51.41448 -0.73958 10505 ft 318 kts 282°
2026-04-30 12:57 51.42015 -0.77477 10757 ft 334 kts 282°
2026-04-30 12:58 51.42612 -0.81169 10977 ft 350 kts 282°
2026-04-30 12:58 51.43238 -0.85030 11236 ft 365 kts 282°
2026-04-30 12:58 51.43876 -0.88978 11521 ft 378 kts 282°
2026-04-30 12:58 51.44552 -0.93156 11943 ft 385 kts 282°
2026-04-30 12:59 51.45225 -0.97327 12514 ft 388 kts 282°
2026-04-30 12:59 51.45900 -1.01529 13059 ft 391 kts 282°
2026-04-30 12:59 51.46578 -1.05772 13601 ft 395 kts 282°
2026-04-30 12:59 51.47263 -1.10055 14113 ft 398 kts 282°
2026-04-30 13:00 51.47952 -1.14368 14626 ft 400 kts 282°
2026-04-30 13:00 51.48644 -1.18713 15095 ft 404 kts 282°
2026-04-30 13:00 51.49338 -1.23086 15615 ft 406 kts 282°
2026-04-30 13:00 51.50019 -1.27434 16105 ft 408 kts 281°
2026-04-30 13:01 51.50703 -1.31868 16629 ft 411 kts 281°
2026-04-30 13:01 51.51386 -1.36330 17138 ft 413 kts 281°
2026-04-30 13:01 51.52071 -1.40824 17634 ft 415 kts 281°
2026-04-30 13:01 51.52758 -1.45341 18142 ft 418 kts 280°
2026-04-30 13:02 51.53452 -1.49904 18544 ft 423 kts 280°
2026-04-30 13:02 51.54151 -1.54514 18935 ft 427 kts 280°
2026-04-30 13:02 51.54855 -1.59164 19342 ft 429 kts 280°
2026-04-30 13:02 51.55561 -1.63842 19747 ft 432 kts 280°
2026-04-30 13:03 51.56270 -1.68551 20146 ft 435 kts 280°
2026-04-30 13:03 51.56981 -1.73287 20575 ft 437 kts 280°
2026-04-30 13:03 51.57695 -1.78057 20980 ft 440 kts 280°
2026-04-30 13:03 51.58413 -1.82866 21375 ft 444 kts 280°
2026-04-30 13:04 51.59132 -1.87698 21763 ft 447 kts 280°
2026-04-30 13:04 51.59855 -1.92573 22155 ft 450 kts 280°
2026-04-30 13:04 51.60583 -1.97493 22517 ft 454 kts 279°
2026-04-30 13:04 51.61315 -2.02457 22905 ft 457 kts 279°
2026-04-30 13:05 51.62049 -2.07447 23317 ft 460 kts 279°
2026-04-30 13:05 51.62784 -2.12463 23732 ft 462 kts 279°
2026-04-30 13:05 51.63522 -2.17515 24079 ft 465 kts 279°
2026-04-30 13:06 51.65001 -2.27689 24826 ft 469 kts 279°
2026-04-30 13:06 51.65742 -2.32813 25204 ft 470 kts 279°
2026-04-30 13:06 51.66483 -2.37953 25557 ft 472 kts 279°
2026-04-30 13:06 51.67225 -2.43125 25942 ft 474 kts 279°
2026-04-30 13:07 51.67966 -2.48293 26399 ft 474 kts 279°
2026-04-30 13:07 51.68705 -2.53473 26812 ft 475 kts 279°
2026-04-30 13:07 51.69446 -2.58686 27222 ft 477 kts 279°
2026-04-30 13:07 51.70185 -2.63911 27622 ft 479 kts 279°
2026-04-30 13:08 51.70925 -2.69158 28002 ft 481 kts 279°
2026-04-30 13:08 51.71666 -2.74427 28410 ft 483 kts 279°
2026-04-30 13:08 51.72408 -2.79714 28815 ft 484 kts 279°
2026-04-30 13:08 51.73148 -2.85017 29374 ft 486 kts 279°
2026-04-30 13:09 51.73891 -2.90351 29752 ft 488 kts 279°
2026-04-30 13:09 51.74630 -2.95680 30267 ft 487 kts 280°
2026-04-30 13:09 51.75368 -3.01013 30654 ft 487 kts 280°
2026-04-30 13:09 51.76104 -3.06359 30905 ft 491 kts 279°
2026-04-30 13:10 51.76845 -3.11756 31148 ft 493 kts 279°
2026-04-30 13:10 51.77589 -3.17197 31283 ft 498 kts 279°
2026-04-30 13:10 51.78333 -3.22664 31502 ft 501 kts 279°
2026-04-30 13:10 51.79082 -3.28187 31778 ft 502 kts 279°
2026-04-30 13:11 51.79828 -3.33706 32031 ft 504 kts 279°
2026-04-30 13:11 51.80564 -3.39172 32259 ft 506 kts 279°
2026-04-30 13:11 51.81318 -3.44786 32701 ft 502 kts 279°
2026-04-30 13:11 51.82044 -3.50207 33231 ft 498 kts 279°
2026-04-30 13:12 51.82774 -3.55666 33611 ft 497 kts 279°
2026-04-30 13:12 51.83495 -3.61128 33946 ft 497 kts 278°
2026-04-30 13:12 51.84204 -3.66592 34281 ft 496 kts 278°
2026-04-30 13:13 51.85601 -3.77491 34863 ft 495 kts 278°
2026-04-30 13:13 51.86296 -3.82936 35146 ft 494 kts 278°
2026-04-30 13:13 51.87457 -3.92054 35608 ft 494 kts 278°
2026-04-30 13:14 51.88146 -3.97495 35816 ft 494 kts 278°
2026-04-30 13:14 51.88835 -4.02939 36078 ft 493 kts 278°
2026-04-30 13:14 51.90200 -4.13800 36568 ft 492 kts 278°
2026-04-30 13:15 51.90879 -4.19227 36798 ft 492 kts 278°
2026-04-30 13:15 51.92227 -4.30078 37236 ft 491 kts 278°
2026-04-30 13:15 51.92896 -4.35493 37447 ft 491 kts 278°
2026-04-30 13:16 51.93563 -4.40919 37648 ft 490 kts 278°
2026-04-30 13:16 51.94228 -4.46343 37830 ft 491 kts 278°
2026-04-30 13:16 51.94889 -4.51766 37986 ft 491 kts 278°
2026-04-30 13:17 51.96210 -4.62675 38089 ft 496 kts 278°
2026-04-30 13:17 51.96873 -4.68181 38092 ft 499 kts 278°
2026-04-30 13:18 51.98853 -4.84741 38088 ft 498 kts 278°
2026-04-30 13:18 52.00806 -5.01279 38092 ft 497 kts 277°
2026-04-30 13:19 52.02083 -5.12220 38087 ft 497 kts 277°
2026-04-30 13:19 52.02571 -5.23289 38089 ft 488 kts 262°
2026-04-30 13:20 52.01971 -5.34252 38085 ft 487 kts 260°
2026-04-30 13:20 52.01182 -5.45180 38081 ft 487 kts 259°
2026-04-30 13:21 52.00369 -5.56095 38090 ft 487 kts 259°
2026-04-30 13:22 51.99167 -5.72473 38083 ft 487 kts 259°
2026-04-30 13:22 51.97957 -5.88843 38102 ft 487 kts 259°
2026-04-30 13:23 51.96729 -6.05149 38088 ft 485 kts 259°
2026-04-30 13:24 51.95703 -6.26951 38098 ft 491 kts 273°
2026-04-30 13:25 51.97730 -6.48933 38094 ft 494 kts 276°
2026-04-30 13:26 52.00454 -6.76411 38094 ft 493 kts 275°
2026-04-30 13:28 52.03060 -7.03939 38094 ft 494 kts 275°
2026-04-30 13:28 52.04594 -7.20469 38102 ft 493 kts 275°
2026-04-30 13:29 52.06604 -7.42530 38099 ft 494 kts 275°
2026-04-30 13:31 52.09060 -7.70161 38086 ft 494 kts 274°
2026-04-30 13:32 52.11453 -7.97824 38088 ft 495 kts 274°
2026-04-30 13:33 52.13322 -8.19997 38078 ft 494 kts 274°
2026-04-30 13:34 52.14696 -8.36640 38074 ft 494 kts 274°
2026-04-30 13:35 52.16489 -8.58806 38075 ft 496 kts 273°
2026-04-30 13:36 52.18248 -8.81095 38072 ft 496 kts 273°
2026-04-30 13:36 52.19540 -8.97828 38069 ft 498 kts 273°
2026-04-30 13:37 52.20816 -9.14675 38067 ft 499 kts 273°
2026-04-30 13:38 52.22069 -9.31531 38052 ft 499 kts 273°
2026-04-30 13:39 52.23704 -9.54055 38049 ft 502 kts 273°
2026-04-30 13:40 52.24908 -9.71034 38045 ft 502 kts 273°
2026-04-30 13:40 52.25698 -9.82362 38041 ft 502 kts 272°
2026-04-30 13:41 52.26477 -9.93698 38058 ft 502 kts 273°
2026-04-30 13:41 52.27244 -10.05054 38038 ft 504 kts 273°
2026-04-30 13:42 52.28004 -10.16442 38029 ft 505 kts 272°
2026-04-30 13:42 52.29120 -10.33467 38030 ft 505 kts 272°
2026-04-30 13:43 52.29853 -10.44872 38031 ft 505 kts 272°
2026-04-30 13:43 52.30574 -10.56273 38033 ft 504 kts 272°
2026-04-30 13:44 52.31285 -10.67678 38034 ft 504 kts 272°
2026-04-30 13:44 52.31983 -10.79069 38034 ft 504 kts 272°
2026-04-30 13:45 52.33011 -10.96178 38050 ft 504 kts 272°
2026-04-30 13:46 52.33683 -11.07620 38030 ft 507 kts 272°
2026-04-30 13:46 52.34347 -11.19088 38028 ft 507 kts 272°
2026-04-30 13:47 52.35001 -11.30575 38033 ft 507 kts 272°
2026-04-30 13:47 52.35643 -11.42064 38023 ft 507 kts 272°
2026-04-30 13:48 52.36273 -11.53551 38032 ft 508 kts 272°
2026-04-30 13:48 52.36895 -11.65092 38036 ft 509 kts 272°
2026-04-30 13:49 52.37507 -11.76638 38042 ft 510 kts 272°
2026-04-30 13:49 52.38108 -11.88198 38027 ft 509 kts 272°
2026-04-30 13:50 52.38697 -11.99755 38052 ft 510 kts 272°
2026-04-30 13:50 52.39561 -12.17141 38037 ft 511 kts 272°
2026-04-30 13:51 52.40124 -12.28742 38038 ft 511 kts 272°
2026-04-30 13:51 52.40675 -12.40344 38041 ft 511 kts 272°
2026-04-30 13:52 52.41214 -12.51945 38056 ft 511 kts 272°
2026-04-30 13:52 52.41742 -12.63570 38042 ft 512 kts 272°
2026-04-30 13:53 52.42260 -12.75214 38042 ft 513 kts 272°
2026-04-30 13:53 52.42683 -12.84898 38043 ft 513 kts 272°
2026-04-30 13:54 52.43263 -12.98520 38043 ft 513 kts 272°
2026-04-30 13:54 52.43747 -13.10178 38048 ft 513 kts 272°
2026-04-30 13:55 52.44220 -13.21836 38048 ft 513 kts 272°
2026-04-30 13:55 52.44680 -13.33494 38048 ft 513 kts 272°
2026-04-30 13:56 52.45130 -13.45152 38045 ft 513 kts 272°
2026-04-30 13:56 52.45568 -13.56822 38051 ft 513 kts 272°
2026-04-30 13:57 52.45923 -13.66525 38047 ft 513 kts 272°
2026-04-30 13:57 52.46341 -13.78201 38052 ft 512 kts 272°
2026-04-30 13:58 52.47008 -13.97561 38056 ft 511 kts 272°
2026-04-30 13:59 52.47332 -14.07313 38069 ft 511 kts 272°
2026-04-30 13:59 52.47708 -14.18961 38058 ft 511 kts 272°
2026-04-30 14:00 52.48073 -14.30614 38061 ft 511 kts 272°
2026-04-30 14:00 52.48599 -14.48102 38070 ft 512 kts 271°
2026-04-30 14:01 52.48934 -14.59746 38070 ft 511 kts 272°
2026-04-30 14:01 52.49259 -14.71408 38072 ft 511 kts 272°
2026-04-30 14:02 52.49572 -14.83046 38072 ft 510 kts 272°
2026-04-30 14:02 52.49873 -14.94677 38072 ft 510 kts 271°
2026-04-30 14:03 52.50157 -15.06318 38075 ft 510 kts 271°
2026-04-30 14:03 52.50387 -15.17966 38086 ft 510 kts 271°
2026-04-30 14:04 52.50598 -15.29618 38086 ft 512 kts 271°
2026-04-30 14:04 52.50804 -15.41300 38083 ft 511 kts 271°
2026-04-30 14:05 52.51004 -15.52973 38086 ft 512 kts 271°
2026-04-30 14:05 52.51193 -15.64654 38089 ft 511 kts 271°
2026-04-30 14:06 52.51453 -15.82094 38094 ft 512 kts 271°
2026-04-30 14:07 52.51687 -15.99608 38100 ft 512 kts 271°
2026-04-30 14:08 52.51896 -16.17126 38101 ft 512 kts 271°
2026-04-30 14:08 52.52080 -16.34634 38101 ft 510 kts 271°
2026-04-30 14:09 52.52188 -16.46318 38111 ft 512 kts 271°
2026-04-30 14:10 52.52328 -16.63817 38121 ft 513 kts 270°
2026-04-30 14:10 52.52406 -16.75493 38116 ft 508 kts 271°
2026-04-30 14:11 52.52473 -16.87063 38117 ft 506 kts 271°
2026-04-30 14:11 52.52529 -16.98602 38127 ft 504 kts 271°
2026-04-30 14:12 52.52574 -17.10138 38129 ft 506 kts 271°
2026-04-30 14:12 52.52606 -17.21670 38134 ft 505 kts 271°
2026-04-30 14:13 52.52629 -17.33256 38134 ft 509 kts 270°
2026-04-30 14:13 52.52639 -17.44840 38140 ft 508 kts 271°
2026-04-30 14:14 52.52638 -17.56449 38136 ft 507 kts 270°
2026-04-30 14:14 52.52626 -17.68014 38146 ft 508 kts 271°
2026-04-30 14:15 52.52604 -17.79600 38143 ft 504 kts 271°
2026-04-30 14:15 52.52569 -17.91081 38156 ft 503 kts 270°
2026-04-30 14:16 52.52524 -18.02561 38154 ft 502 kts 270°
2026-04-30 14:16 52.52468 -18.14023 38157 ft 503 kts 270°
2026-04-30 14:17 52.52401 -18.25483 38159 ft 501 kts 271°
2026-04-30 14:17 52.52321 -18.36886 38168 ft 497 kts 270°
2026-04-30 14:18 52.52232 -18.48215 38168 ft 496 kts 271°
2026-04-30 14:18 52.52080 -18.65202 38168 ft 495 kts 270°
2026-04-30 14:19 52.51905 -18.82065 38175 ft 490 kts 270°
2026-04-30 14:20 52.51775 -18.93137 38178 ft 487 kts 271°
2026-04-30 14:20 52.51563 -19.09799 38189 ft 487 kts 271°
2026-04-30 14:21 52.51409 -19.20914 38186 ft 487 kts 270°
2026-04-30 14:22 52.51157 -19.37586 38190 ft 486 kts 270°
2026-04-30 14:22 52.50882 -19.54202 38196 ft 485 kts 270°
2026-04-30 14:23 52.50479 -19.76335 38201 ft 485 kts 269°
2026-04-30 14:24 52.50151 -19.92950 38204 ft 486 kts 270°
2026-04-30 14:25 52.49290 -20.15104 38207 ft 487 kts 265°
2026-04-30 14:26 52.48202 -20.31662 38208 ft 487 kts 265°
2026-04-30 14:27 52.47196 -20.48207 38211 ft 485 kts 266°
2026-04-30 14:27 52.46533 -20.59202 38212 ft 485 kts 265°
2026-04-30 14:28 52.45517 -20.75698 38219 ft 485 kts 265°
2026-04-30 14:28 52.44823 -20.86706 38217 ft 485 kts 265°
2026-04-30 14:29 52.43529 -21.06814 38217 ft 485 kts 265°
2026-04-30 14:31 52.41579 -21.36154 38226 ft 485 kts 265°
2026-04-30 14:31 52.40448 -21.52660 38231 ft 487 kts 265°
2026-04-30 14:32 52.39295 -21.69169 38233 ft 487 kts 265°
2026-04-30 14:33 52.38513 -21.80169 38239 ft 487 kts 265°
2026-04-30 14:33 52.37324 -21.96610 38236 ft 487 kts 265°
2026-04-30 14:34 52.36515 -22.07619 38239 ft 487 kts 264°
2026-04-30 14:34 52.35696 -22.18626 38247 ft 488 kts 264°
2026-04-30 14:35 52.34447 -22.35136 38244 ft 487 kts 265°
2026-04-30 14:36 52.33602 -22.46114 38257 ft 486 kts 265°
2026-04-30 14:36 52.32752 -22.57068 38254 ft 486 kts 264°
2026-04-30 14:37 52.31889 -22.68030 38258 ft 486 kts 265°
2026-04-30 14:37 52.31017 -22.78986 38265 ft 487 kts 265°
2026-04-30 14:38 52.30132 -22.89952 38259 ft 487 kts 264°
2026-04-30 14:38 52.29236 -23.00929 38268 ft 488 kts 265°
2026-04-30 14:39 52.28330 -23.11919 38266 ft 488 kts 264°
2026-04-30 14:39 52.27411 -23.22900 38281 ft 488 kts 264°
2026-04-30 14:40 52.26016 -23.39370 38284 ft 488 kts 264°
2026-04-30 14:40 52.25074 -23.50339 38284 ft 488 kts 264°
2026-04-30 14:41 52.24120 -23.61314 38278 ft 488 kts 264°
2026-04-30 14:41 52.23156 -23.72275 38295 ft 488 kts 264°
2026-04-30 14:42 52.22347 -23.81402 38301 ft 489 kts 264°
2026-04-30 14:42 52.21366 -23.92356 38296 ft 488 kts 264°
2026-04-30 14:43 52.20212 -24.05078 38303 ft 488 kts 264°
2026-04-30 14:43 52.19208 -24.16022 38307 ft 488 kts 264°
2026-04-30 14:44 52.18360 -24.25181 38297 ft 488 kts 264°
2026-04-30 14:44 52.17338 -24.36117 38305 ft 488 kts 264°
2026-04-30 14:45 52.16306 -24.47033 38310 ft 488 kts 264°
2026-04-30 14:45 52.15272 -24.57871 38311 ft 487 kts 264°
2026-04-30 14:46 52.14222 -24.68759 38318 ft 487 kts 264°
2026-04-30 14:46 52.13163 -24.79636 38322 ft 486 kts 264°
2026-04-30 14:47 52.12095 -24.90504 38318 ft 486 kts 264°
2026-04-30 14:47 52.11017 -25.01366 38324 ft 486 kts 264°
2026-04-30 14:48 52.09929 -25.12220 38324 ft 486 kts 263°
2026-04-30 14:48 52.08831 -25.23063 38327 ft 486 kts 263°
2026-04-30 14:49 52.07722 -25.33913 38323 ft 486 kts 263°
2026-04-30 14:49 52.06604 -25.44755 38335 ft 486 kts 263°
2026-04-30 14:50 52.04908 -25.61009 38336 ft 486 kts 263°
2026-04-30 14:51 52.03189 -25.77252 38341 ft 486 kts 263°
2026-04-30 14:52 52.01447 -25.93487 38346 ft 487 kts 263°
2026-04-30 14:52 51.99683 -26.09707 38342 ft 487 kts 263°
2026-04-30 14:53 51.97896 -26.25923 38343 ft 487 kts 263°
2026-04-30 14:54 51.95476 -26.47550 38347 ft 488 kts 262°
2026-04-30 14:55 51.93641 -26.63698 38336 ft 488 kts 262°
2026-04-30 14:56 51.91135 -26.85432 38356 ft 492 kts 262°
2026-04-30 14:57 51.89220 -27.01795 38358 ft 494 kts 262°
2026-04-30 14:58 51.86628 -27.23611 38358 ft 494 kts 261°
2026-04-30 14:58 51.84656 -27.39968 38359 ft 495 kts 261°
2026-04-30 15:00 51.81312 -27.67261 38365 ft 495 kts 261°
2026-04-30 15:01 51.78598 -27.89014 38377 ft 496 kts 261°
2026-04-30 15:01 51.76528 -28.05376 38374 ft 496 kts 261°
2026-04-30 15:02 51.75135 -28.16276 38374 ft 496 kts 261°
2026-04-30 15:03 51.71608 -28.43511 38371 ft 496 kts 260°
2026-04-30 15:04 51.68015 -28.70716 38383 ft 497 kts 260°
2026-04-30 15:06 51.64338 -28.98049 38382 ft 500 kts 259°
2026-04-30 15:07 51.61344 -29.19915 38386 ft 500 kts 259°
2026-04-30 15:08 51.58311 -29.41755 38388 ft 500 kts 259°
2026-04-30 15:09 51.54470 -29.68955 38378 ft 501 kts 259°
2026-04-30 15:10 51.51346 -29.90725 38391 ft 500 kts 258°
2026-04-30 15:11 51.48627 -30.23773 38397 ft 498 kts 266°
2026-04-30 15:13 51.47023 -30.51443 38397 ft 500 kts 266°
2026-04-30 15:14 51.44616 -30.90324 38401 ft 501 kts 265°
2026-04-30 15:17 51.41339 -31.40177 38407 ft 501 kts 265°
2026-04-30 15:19 51.38240 -31.84556 38410 ft 502 kts 264°
2026-04-30 17:39 46.42635 -60.15101 40225 ft 469 kts 240°
2026-04-30 17:42 46.27209 -60.56660 40167 ft 468 kts 240°
2026-04-30 17:43 46.19447 -60.77334 40164 ft 468 kts 240°
2026-04-30 17:44 46.10087 -61.02054 40133 ft 467 kts 240°
2026-04-30 17:47 45.95983 -61.38882 40122 ft 467 kts 240°
2026-04-30 17:48 45.84955 -61.67338 40129 ft 466 kts 240°
2026-04-30 17:50 45.72277 -61.99698 40117 ft 464 kts 240°
2026-04-30 17:52 45.62756 -62.23748 40103 ft 463 kts 240°
2026-04-30 17:54 45.48406 -62.59608 40091 ft 462 kts 239°
2026-04-30 17:56 45.35567 -62.91304 40082 ft 462 kts 239°
2026-04-30 17:58 45.25885 -63.14972 40079 ft 463 kts 239°
2026-04-30 18:00 45.13394 -63.45211 40073 ft 464 kts 239°
2026-04-30 18:01 45.05198 -63.64877 40072 ft 463 kts 239°
2026-04-30 18:02 44.95372 -63.88276 40064 ft 461 kts 239°
2026-04-30 18:04 44.85557 -64.11456 40047 ft 457 kts 238°
2026-04-30 18:06 44.72472 -64.42066 40031 ft 455 kts 238°
2026-04-30 18:08 44.61011 -64.68611 40026 ft 454 kts 238°
2026-04-30 18:10 44.47844 -64.98805 40026 ft 453 kts 238°
2026-04-30 18:11 44.36267 -65.25091 40009 ft 454 kts 238°
2026-04-30 18:13 44.27958 -65.43813 39991 ft 454 kts 237°
2026-04-30 18:14 44.19610 -65.62498 39986 ft 454 kts 237°
2026-04-30 18:15 44.09577 -65.84796 39949 ft 454 kts 237°
2026-04-30 18:16 44.02853 -65.99644 39922 ft 454 kts 237°
2026-04-30 18:17 43.99484 -66.07056 39909 ft 454 kts 237°
2026-04-30 18:18 43.94426 -66.18147 39917 ft 453 kts 237°
2026-04-30 18:18 43.91053 -66.25521 39915 ft 453 kts 237°
2026-04-30 18:19 43.87673 -66.32888 39912 ft 453 kts 237°
2026-04-30 18:19 43.84291 -66.40243 39910 ft 453 kts 237°
2026-04-30 18:20 43.80905 -66.47588 39908 ft 452 kts 237°
2026-04-30 18:20 43.77515 -66.54923 39900 ft 452 kts 237°
2026-04-30 18:21 43.74120 -66.62251 39895 ft 452 kts 237°
2026-04-30 18:21 43.70722 -66.69567 39894 ft 452 kts 237°
2026-04-30 18:22 43.67320 -66.76873 39893 ft 452 kts 237°
2026-04-30 18:22 43.62209 -66.87816 39883 ft 453 kts 237°
2026-04-30 18:23 43.58792 -66.95109 39876 ft 452 kts 236°
2026-04-30 18:23 43.55398 -67.02404 39869 ft 451 kts 239°
2026-04-30 18:24 43.50730 -67.13670 39867 ft 451 kts 239°
2026-04-30 18:25 43.47621 -67.21109 39868 ft 451 kts 239°
2026-04-30 18:25 43.42902 -67.32301 39854 ft 450 kts 239°
2026-04-30 18:26 43.38175 -67.43456 39853 ft 450 kts 239°
2026-04-30 18:27 43.33437 -67.54590 39839 ft 450 kts 239°
2026-04-30 18:28 43.28694 -67.65693 39839 ft 449 kts 239°
2026-04-30 18:28 43.23952 -67.76750 39834 ft 448 kts 239°
2026-04-30 18:29 43.17611 -67.91471 39833 ft 448 kts 239°
2026-04-30 18:30 43.11262 -68.06138 39830 ft 448 kts 239°
2026-04-30 18:31 43.06489 -68.17115 39823 ft 448 kts 239°
2026-04-30 18:32 43.01713 -68.28057 39826 ft 446 kts 239°
2026-04-30 18:33 42.96936 -68.38963 39819 ft 446 kts 239°
2026-04-30 18:33 42.92151 -68.49845 39816 ft 446 kts 239°
2026-04-30 18:34 42.87359 -68.60703 39824 ft 446 kts 239°
2026-04-30 18:35 42.84156 -68.67938 39820 ft 446 kts 238°
2026-04-30 18:35 42.80969 -68.75118 39817 ft 446 kts 238°
2026-04-30 18:36 42.76152 -68.85940 39815 ft 446 kts 238°
2026-04-30 18:37 42.71314 -68.96769 39814 ft 447 kts 238°
2026-04-30 18:37 42.68080 -69.03985 39810 ft 447 kts 238°
2026-04-30 18:38 42.64841 -69.11196 39808 ft 447 kts 238°
2026-04-30 18:38 42.61602 -69.18388 39808 ft 446 kts 238°
2026-04-30 18:39 42.58360 -69.25570 39810 ft 447 kts 238°
2026-04-30 18:39 42.55107 -69.32757 39810 ft 447 kts 238°
2026-04-30 18:40 42.51851 -69.39935 39801 ft 447 kts 238°
2026-04-30 18:40 42.48596 -69.47093 39810 ft 446 kts 238°
2026-04-30 18:41 42.45340 -69.54239 39823 ft 446 kts 238°
2026-04-30 18:41 42.42076 -69.61381 39810 ft 446 kts 238°
2026-04-30 18:42 42.38806 -69.68520 39789 ft 446 kts 238°
2026-04-30 18:42 42.33898 -69.79204 39807 ft 445 kts 238°
2026-04-30 18:45 42.15872 -70.18121 39814 ft 444 kts 238°
2026-04-30 18:46 42.12579 -70.25175 39813 ft 445 kts 238°
2026-04-30 18:46 42.09277 -70.32231 39809 ft 445 kts 238°
2026-04-30 18:47 42.05975 -70.39275 39810 ft 445 kts 238°
2026-04-30 18:47 42.03120 -70.46640 39807 ft 445 kts 246°
2026-04-30 18:48 42.01123 -70.53009 39805 ft 445 kts 246°
2026-04-30 18:48 41.98724 -70.60677 39795 ft 445 kts 246°
2026-04-30 18:49 41.96309 -70.68350 39791 ft 445 kts 246°
2026-04-30 18:49 41.93895 -70.75991 39797 ft 444 kts 246°
2026-04-30 18:50 41.91479 -70.83615 39793 ft 444 kts 246°
2026-04-30 18:50 41.89057 -70.91235 39817 ft 444 kts 246°
2026-04-30 18:51 41.86825 -70.98236 39519 ft 440 kts 246°
2026-04-30 18:51 41.85624 -71.01999 39120 ft 437 kts 246°
2026-04-30 18:51 41.84428 -71.05739 38561 ft 436 kts 246°
2026-04-30 18:51 41.83233 -71.09469 37874 ft 434 kts 246°
2026-04-30 18:52 41.82043 -71.13178 37260 ft 432 kts 246°
2026-04-30 18:52 41.80860 -71.16862 36657 ft 429 kts 246°
2026-04-30 18:52 41.79686 -71.20512 36223 ft 423 kts 246°
2026-04-30 18:52 41.78527 -71.24112 35775 ft 418 kts 246°
2026-04-30 18:53 41.77381 -71.27667 35290 ft 414 kts 246°
2026-04-30 18:53 41.76244 -71.31187 34846 ft 409 kts 246°
2026-04-30 18:53 41.75119 -71.34668 34399 ft 405 kts 246°
2026-04-30 18:53 41.74005 -71.38108 33946 ft 401 kts 246°
2026-04-30 18:54 41.72745 -71.41411 33485 ft 396 kts 238°
2026-04-30 18:54 41.71078 -71.44309 33044 ft 392 kts 228°
2026-04-30 18:54 41.69080 -71.46760 32614 ft 388 kts 223°
2026-04-30 18:54 41.67020 -71.49059 32182 ft 383 kts 223°
2026-04-30 18:55 41.64983 -71.51314 31750 ft 378 kts 223°
2026-04-30 18:55 41.60992 -71.55743 30933 ft 369 kts 223°
2026-04-30 18:55 41.59029 -71.57926 30518 ft 366 kts 223°
2026-04-30 18:56 41.55156 -71.62232 29651 ft 359 kts 223°
2026-04-30 18:56 41.53248 -71.64352 29223 ft 355 kts 223°
2026-04-30 18:56 41.51365 -71.66442 28820 ft 349 kts 223°
2026-04-30 18:57 41.47709 -71.70499 28057 ft 340 kts 223°
2026-04-30 18:57 41.45900 -71.72504 27673 ft 336 kts 223°
2026-04-30 18:57 41.44113 -71.74482 27288 ft 332 kts 223°
2026-04-30 18:58 41.40582 -71.78390 26511 ft 329 kts 223°
2026-04-30 18:58 41.38821 -71.80337 26132 ft 328 kts 223°
2026-04-30 18:58 41.37069 -71.82271 25753 ft 327 kts 222°
2026-04-30 18:59 41.33582 -71.86118 24965 ft 324 kts 222°
2026-04-30 19:00 41.28405 -71.91819 23802 ft 321 kts 222°
2026-04-30 19:00 41.26658 -71.93748 23521 ft 335 kts 222°
2026-04-30 19:00 41.22985 -71.97779 22704 ft 343 kts 221°
2026-04-30 19:01 41.19340 -72.01769 21962 ft 337 kts 221°
2026-04-30 19:01 41.17533 -72.03746 21596 ft 335 kts 221°
2026-04-30 19:02 41.13959 -72.07655 20896 ft 331 kts 221°
2026-04-30 19:02 41.10563 -72.11691 20205 ft 325 kts 232°
2026-04-30 19:03 41.08648 -72.17030 19507 ft 322 kts 250°
2026-04-30 19:03 41.07286 -72.22651 18828 ft 318 kts 250°
2026-04-30 19:04 41.05923 -72.28205 18157 ft 316 kts 250°
2026-04-30 19:04 41.04555 -72.33723 17434 ft 314 kts 250°
2026-04-30 19:05 41.03198 -72.39174 16766 ft 310 kts 250°
2026-04-30 19:05 41.01854 -72.44560 16121 ft 306 kts 250°
2026-04-30 19:06 41.00533 -72.49840 15498 ft 303 kts 250°
2026-04-30 19:06 40.99872 -72.52475 15169 ft 301 kts 250°
2026-04-30 19:06 40.98558 -72.57707 14668 ft 299 kts 250°
2026-04-30 19:07 40.97287 -72.62767 14296 ft 280 kts 250°
2026-04-30 19:07 40.96680 -72.65179 14004 ft 274 kts 250°
2026-04-30 19:08 40.95495 -72.69874 13425 ft 266 kts 250°